Regional Weather Roundup
Issued by NWS Mt. Holly, NJ

Current Version | Previous Version | Text Only | Print | Product List | Glossary On
Versions: 1 2 3 4 5 6 7 8 9 10 11 12 13 14 15 16 17 18 19 20 21 22 23 24 25 26
000
ASUS41 KPHI 270012
RWRPHI

REGIONAL WEATHER ROUNDUP
NATIONAL WEATHER SERVICE MOUNT HOLLY NJ
800 PM EDT THU MAY 26 2016

NOTE:  "FAIR" INDICATES FEW OR NO CLOUDS BELOW 12,000 FEET WITH NO
SIGNIFICANT WEATHER AND/OR OBSTRUCTIONS TO VISIBILITY.

 * = STATION DOES NOT REPORT PRECIPITATION (E.G. RAIN, SNOW, ETC.)
        OR FOG.

NJZ015>026-270100-
SOUTHERN NEW JERSEY

CITY           SKY/WX    TMP DP  RH WIND       PRES   REMARKS
POMONA         CLEAR     75  58  55 S6        30.06S
6HR MIN TEMP:  75; 6HR MAX TEMP:  88;

WILDWOOD*      CLEAR    N/A N/A N/A S8        30.06S
MILLVILLE      CLEAR     77  59  53 S6        30.04S
WRIGHTSTOWN    CLEAR     80  55  41 S8        30.01R
MOUNT HOLLY    CLEAR     82  56  40 VRB3      30.02S
TRENTON        CLEAR     82  56  40 S6        30.02R
6HR MIN TEMP:  82; 6HR MAX TEMP:  90;


$$
NJZ001>014-270100-
NORTHERN NEW JERSEY

CITY           SKY/WX    TMP DP  RH WIND       PRES   REMARKS
SUSSEX         CLEAR     77  60  55 CALM      30.03R
ANDOVER*         N/A     76  62  62 CALM      30.03S
MORRISTOWN     MOCLDY    84  54  34 S5        30.02S
NEWARK         MOCLDY    83  46  27 SE8       30.02S
TETERBORO      CLEAR     85  38  18 S10G17    30.01S
CALDWELL       CLEAR     84  46  26 SE9       30.02S
SOMERVILLE     CLEAR     78  56  46 CALM      30.00S
ALLAIRE*       CLEAR     76  58  53 SE8       30.06R
TOMS RIVER*    CLEAR     79  48  34 S12       30.05R

$$
PAZ043-044-047-054-055-060>062-066>071-270100-
EASTERN PENNSYLVANIA

CITY           SKY/WX    TMP DP  RH WIND       PRES   REMARKS
PHILADELPHIA   PTCLDY    83  52  34 S9        30.03R
6HR MIN TEMP:  83; 6HR MAX TEMP:  90;

NORTH PHILA    CLEAR     85  58  39 VRB6      30.04R
BLUE BELL*     CLEAR     79  59  50 S5        30.03R
DOYLESTOWN     CLEAR     81  55  40 S5        30.02S
QUAKERTOWN*    PTCLDY    81  63  54 CALM      30.04S
POTTSTOWN      PTCLDY    82  58  43 S7        30.04R
LANCASTER      CLOUDY    80  64  58 S7        30.02R
COATESVILLE    CLEAR     79  54  41 VRB5      30.06S
READING        MOCLDY    82  59  45 S6        30.01S
6HR MIN TEMP:  82; 6HR MAX TEMP:  89;

ALLENTOWN      CLOUDY    83  57  41 S5        30.02R
6HR MIN TEMP:  83; 6HR MAX TEMP:  90;

MOUNT POCONO   CLOUDY    70  53  54 S5        30.09S
6HR MIN TEMP:  69; 6HR MAX TEMP:  78;

HAZLETON       PTCLDY    79  57  47 S3        30.10S
LEHIGHTON      FAIR      75  66  73 CALM      30.02S
WILKES BARRE   CLOUDY    81  58  45 CALM      30.03R

$$
DEZALL-MDZ008-012-015-019-020-270100-
DELAWARE AND EASTERN MARYLAND

CITY           SKY/WX    TMP DP  RH WIND       PRES   REMARKS
WILMINGTON     CLEAR     77  60  55 S7        30.03S
6HR MIN TEMP:  77; 6HR MAX TEMP:  87;

DOVER          CLEAR     73  71  92 E5        30.03R
GEORGETOWN     CLEAR     81  62  52 S12       30.06R
6HR MIN TEMP:  81; 6HR MAX TEMP:  90;

EASTON         CLEAR     82  68  61 S8        30.08R
ABERDEEN       MOCLDY    82  66  57 CALM      30.02
PATUXENT       PTCLDY    80  64  58 S6        30.03R
OCEAN CITY     CLEAR     73  65  75 SW9       30.08R
WALLOPS ISLAND FAIR      71  63  75 S15       30.08S
CAMBRIDGE      CLEAR     79  61  53 S6        30.04R
SALISBURY      CLEAR     78  64  61 S7        30.06R

$$
PAZ001-021-NYZ056-072-MDZ011-DCZ001-270100-
OTHER NEARBY LOCATIONS

CITY           SKY/WX    TMP DP  RH WIND       PRES   REMARKS
HARRISBURG     MOCLDY    78  64  61 SW5       30.00S
STATE COLLEGE  PTCLDY    72  64  78 CALM      30.03F
WILLIAMSPORT   CLOUDY    79  62  56 CALM      29.98F
BINGHAMTON     CLEAR     76  54  46 SW7       30.04S
NEW YORK CITY  CLEAR     81  41  24 VRB6      30.06S
BALTIMORE      MOCLDY    81  64  56 SE7       30.01R
WASHINGTON DC  MOCLDY    80  65  59 S8        30.01S

$$




USA.gov is the U.S. government's official web portal to all federal, state and local government web resources and services.